Tracking 30072 objects as of 14-Jan-2025
HD Live streaming from Space Station
objects crossing your sky now

STARLINK-2191

Track STARLINK-2191 now!
10-day predictions
STARLINK-2191 is classified as:


NORAD ID: 48565
Int'l Code: 2021-041N
Perigee: 448.5 km
Apogee: 453.7 km
Inclination: 53.0 °
Period: 93.5 minutes
Semi major axis: 6822 km
RCS: Unknown
Launch date: May 15, 2021
Source: United States (US)
Launch site: AIR FORCE EASTERN TEST RANGE (AFETR)
Your satellite tracking list
Your tracking list is empty




NASA's NSSDC Master Catalog

Two Line Element Set (TLE):
1 48565U 21041N   25014.51021066  .00049821  00000-0  12025-2 0  9995
2 48565  53.0495 194.4521 0003867 193.3214 166.7688 15.40725790202735
Source of the keplerian elements: AFSPC